Location: Caltech
(34.1382°N, 118.1253°W)
Time: 05:42:03
(UTC-07:00)

Aureole 2 Rocket - Visible Passes

Search period start: 20 July 2017 00:00
Search period end: 30 July 2017 00:00
Orbit: 327 x 567 km, 73.9° (Epoch: 19 July)

Date Brightness Start Highest point End Pass type
(mag) Time Alt. Az. Time Alt. Az. Time Alt. Az.
20 Jul 3.0 04:56:31 10° S 05:00:41 76° ESE 05:04:50 10° NNE visible
21 Jul 4.2 04:20:31 13° SSE 04:23:53 36° ESE 04:27:43 10° NE visible
22 Jul 5.2 03:44:52 13° SE 03:47:10 19° E 03:50:05 10° NE visible
22 Jul 4.0 05:18:33 10° SW 05:22:10 28° WNW 05:25:46 10° N visible
23 Jul 3.0 04:42:46 23° SW 04:45:12 55° WNW 04:49:15 10° N visible
24 Jul 3.0 04:06:58 41° S 04:08:17 71° ESE 04:12:24 10° NNE visible
25 Jul 4.1 03:31:07 33° ESE 03:31:26 34° ESE 03:35:09 10° NE visible
25 Jul 4.7 05:04:43 12° W 05:06:42 16° WNW 05:09:17 10° NNW visible
26 Jul 5.3 02:55:12 17° E 02:55:12 17° E 02:57:21 10° ENE visible
26 Jul 3.9 04:28:48 27° W 04:29:36 30° WNW 04:33:12 10° N visible
27 Jul 3.0 03:52:49 58° NW 03:52:49 58° NW 03:56:35 10° N visible
28 Jul 4.0 03:16:46 42° NE 03:16:46 42° NE 03:19:36 10° NNE visible
29 Jul 5.2 02:40:40 20° NE 02:40:40 20° NE 02:42:16 10° NE visible
29 Jul 4.8 04:14:16 17° WNW 04:14:16 17° WNW 04:16:33 10° NNW visible
